| time (UTC) | temp C | wind direction | speed KPH | gust KPH | rain 1hr cm | rain 24hr cm | rain mn cm | humidity % | barometer mb |
| 20260504042007 | 12 | 217 | 0.0 | 3.2 | 0.00 | 0.00 | 0.00 | 61 | 1017.9 |
| 20260504041520 | 12 | 216 | 0.0 | 3.2 | 0.00 | 0.00 | 0.00 | 62 | 1018.0 |
| 20260504041007 | 12 | 232 | 0.0 | 3.2 | 0.00 | 0.00 | 0.00 | 63 | 1017.9 |
| 20260504040507 | 12 | 232 | 0.0 | 3.2 | 0.00 | 0.00 | 0.00 | 64 | 1017.9 |
| 20260504040018 | 12 | 232 | 0.0 | 3.2 | 0.00 | 0.00 | 0.00 | 65 | 1018.0 |
| 20260504035505 | 12 | 232 | 0.0 | 3.2 | 0.00 | 0.00 | 0.00 | 61 | 1018.0 |
| 20260504035004 | 12 | 232 | 0.0 | 3.2 | 0.00 | 0.00 | 0.00 | 64 | 1018.0 |
| 20260504034510 | 12 | 232 | 0.0 | 3.2 | 0.00 | 0.00 | 0.00 | 63 | 1018.0 |
| 20260504034007 | 13 | 232 | 0.0 | 3.2 | 0.00 | 0.00 | 0.00 | 60 | 1017.9 |
| 20260504033505 | 13 | 232 | 0.0 | 3.2 | 0.00 | 0.00 | 0.00 | 59 | 1017.9 |
| 20260504033013 | 13 | 231 | 1.6 | 4.8 | 0.00 | 0.00 | 0.00 | 56 | 1017.8 |
| 20260504032503 | 13 | 203 | 1.6 | 4.8 | 0.00 | 0.00 | 0.00 | 56 | 1017.7 |
| 20260504032009 | 13 | 223 | 1.6 | 4.8 | 0.00 | 0.00 | 0.00 | 56 | 1017.6 |
| 20260504031523 | 13 | 219 | 1.6 | 6.4 | 0.00 | 0.00 | 0.00 | 55 | 1017.6 |
| 20260504031008 | 14 | 210 | 3.2 | 6.4 | 0.00 | 0.00 | 0.00 | 55 | 1017.5 |
| 20260504030507 | 14 | 230 | 3.2 | 6.4 | 0.00 | 0.00 | 0.00 | 54 | 1017.5 |
| 20260504030021 | 14 | 237 | 3.2 | 4.8 | 0.00 | 0.00 | 0.00 | 54 | 1017.6 |
| 20260504025507 | 14 | 243 | 1.6 | 4.8 | 0.00 | 0.00 | 0.00 | 54 | 1017.5 |
| 20260504025007 | 14 | 233 | 3.2 | 4.8 | 0.00 | 0.00 | 0.00 | 54 | 1017.4 |
| 20260504024524 | 14 | 226 | 1.6 | 3.2 | 0.00 | 0.00 | 0.00 | 54 | 1017.5 |
| 20260504024003 | 14 | 210 | 1.6 | 3.2 | 0.00 | 0.00 | 0.00 | 55 | 1017.5 |
| 20260504023504 | 13 | 210 | 1.6 | 3.2 | 0.00 | 0.00 | 0.00 | 55 | 1017.4 |
| 20260504023013 | 13 | 217 | 1.6 | 3.2 | 0.00 | 0.00 | 0.00 | 56 | 1017.4 |
| 20260504022506 | 13 | 212 | 1.6 | 3.2 | 0.00 | 0.00 | 0.00 | 60 | 1017.4 |
| 20260504022007 | 13 | 204 | 1.6 | 3.2 | 0.00 | 0.00 | 0.00 | 60 | 1017.4 |
| 20260504021518 | 13 | 233 | 1.6 | 3.2 | 0.00 | 0.00 | 0.00 | 56 | 1017.4 |
| 20260504021006 | 13 | 214 | 0.0 | 3.2 | 0.00 | 0.00 | 0.00 | 61 | 1017.4 |
| 20260504020508 | 13 | 231 | 1.6 | 3.2 | 0.00 | 0.00 | 0.00 | 56 | 1017.4 |
| 20260504020022 | 13 | 214 | 1.6 | 4.8 | 0.00 | 0.00 | 0.00 | 57 | 1017.4 |
| 20260504015506 | 12 | 200 | 3.2 | 4.8 | 0.00 | 0.00 | 0.00 | 58 | 1017.4 |
| 20260504015007 | 12 | 229 | 0.0 | 3.2 | 0.00 | 0.00 | 0.00 | 66 | 1017.3 |
| 20260504014522 | 12 | 196 | 1.6 | 3.2 | 0.00 | 0.00 | 0.00 | 69 | 1017.3 |
| 20260504014007 | 12 | 237 | 0.0 | 3.2 | 0.00 | 0.00 | 0.00 | 68 | 1017.3 |
| 20260504013506 | 12 | 270 | 0.0 | 0.0 | 0.00 | 0.00 | 0.00 | 68 | 1017.3 |
| 20260504013017 | 12 | 270 | 0.0 | 0.0 | 0.00 | 0.00 | 0.00 | 67 | 1017.2 |
| 20260504012504 | 12 | 270 | 0.0 | 0.0 | 0.00 | 0.00 | 0.00 | 67 | 1017.2 |
| 20260504012004 | 12 | 270 | 0.0 | 0.0 | 0.00 | 0.00 | 0.00 | 66 | 1017.1 |
| 20260504011512 | 12 | 270 | 0.0 | 0.0 | 0.00 | 0.00 | 0.00 | 66 | 1017.1 |
| 20260504011004 | 12 | 270 | 0.0 | 0.0 | 0.00 | 0.00 | 0.00 | 65 | 1017.0 |
| 20260504010506 | 13 | 270 | 0.0 | 0.0 | 0.00 | 0.00 | 0.00 | 64 | 1017.0 |
| 20260504010018 | 13 | 270 | 0.0 | 0.0 | 0.00 | 0.00 | 0.00 | 62 | 1016.9 |
| 20260504005508 | 13 | 270 | 0.0 | 0.0 | 0.00 | 0.00 | 0.00 | 61 | 1017.0 |
| 20260504005008 | 13 | 270 | 0.0 | 0.0 | 0.00 | 0.00 | 0.00 | 60 | 1017.0 |
| 20260504004526 | 14 | 270 | 0.0 | 0.0 | 0.00 | 0.00 | 0.00 | 58 | 1016.9 |
| 20260504004009 | 15 | 270 | 0.0 | 0.0 | 0.00 | 0.00 | 0.00 | 58 | 1016.9 |
| 20260504003510 | 15 | 270 | 0.0 | 0.0 | 0.00 | 0.00 | 0.00 | 57 | 1016.9 |
| 20260504003038 | 15 | 270 | 0.0 | 0.0 | 0.00 | 0.00 | 0.00 | 55 | 1016.8 |
| 20260504002508 | 15 | 270 | 0.0 | 1.6 | 0.00 | 0.00 | 0.00 | 57 | 1016.8 |
| 20260504002007 | 16 | 270 | 0.0 | 3.2 | 0.00 | 0.00 | 0.00 | 55 | 1016.8 |
| 20260504001511 | 16 | 270 | 0.0 | 3.2 | 0.00 | 0.00 | 0.00 | 55 | 1016.8 |
| 20260504001004 | 16 | 270 | 0.0 | 3.2 | 0.00 | 0.00 | 0.00 | 50 | 1016.8 |
| 20260504000507 | 17 | 270 | 0.0 | 0.0 | 0.00 | 0.00 | 0.00 | 49 | 1016.8 |
| 20260504000046 | 17 | 270 | 0.0 | 1.6 | 0.00 | 0.00 | 0.00 | 53 | 1016.8 |
| 20260503235509 | 17 | 270 | 0.0 | 3.2 | 0.00 | 0.00 | 0.00 | 52 | 1016.8 |
| 20260503235008 | 17 | 278 | 0.0 | 3.2 | 0.00 | 0.00 | 0.00 | 50 | 1016.8 |
| 20260503234522 | 17 | 221 | 1.6 | 4.8 | 0.00 | 0.00 | 0.00 | 43 | 1016.9 |
| 20260503234007 | 17 | 211 | 1.6 | 4.8 | 0.00 | 0.00 | 0.00 | 43 | 1016.9 |
| 20260503233510 | 17 | 247 | 1.6 | 4.8 | 0.00 | 0.00 | 0.00 | 43 | 1016.8 |
| 20260503233023 | 18 | 206 | 3.2 | 4.8 | 0.00 | 0.00 | 0.00 | 43 | 1016.8 |
| 20260503232511 | 18 | 160 | 1.6 | 3.2 | 0.00 | 0.00 | 0.00 | 42 | 1016.8 |
| 20260503232008 | 18 | 194 | 1.6 | 11.3 | 0.00 | 0.00 | 0.00 | 42 | 1016.9 |
| 20260503231525 | 18 | 231 | 3.2 | 11.3 | 0.00 | 0.00 | 0.00 | 42 | 1016.9 |
| 20260503231010 | 18 | 200 | 1.6 | 9.7 | 0.00 | 0.00 | 0.00 | 41 | 1017.0 |
| 20260503230504 | 18 | 205 | 3.2 | 9.7 | 0.00 | 0.00 | 0.00 | 41 | 1017.0 |
| 20260503230015 | 18 | 175 | 1.6 | 6.4 | 0.00 | 0.00 | 0.00 | 42 | 1017.1 |
| 20260503225508 | 18 | 219 | 1.6 | 6.4 | 0.00 | 0.00 | 0.00 | 42 | 1017.1 |
| 20260503225007 | 18 | 197 | 1.6 | 6.4 | 0.00 | 0.00 | 0.00 | 41 | 1017.1 |
| 20260503224519 | 18 | 226 | 3.2 | 8.0 | 0.00 | 0.00 | 0.00 | 40 | 1017.1 |
| 20260503224009 | 18 | 230 | 3.2 | 8.0 | 0.00 | 0.00 | 0.00 | 40 | 1017.2 |
| 20260503223507 | 18 | 242 | 4.8 | 8.0 | 0.00 | 0.00 | 0.00 | 40 | 1017.2 |
| 20260503223028 | 18 | 197 | 1.6 | 4.8 | 0.00 | 0.00 | 0.00 | 40 | 1017.3 |
| 20260503222507 | 18 | 240 | 0.0 | 9.7 | 0.00 | 0.00 | 0.00 | 39 | 1017.4 |
| 20260503222010 | 18 | 200 | 4.8 | 9.7 | 0.00 | 0.00 | 0.00 | 39 | 1017.5 |
| 20260503221524 | 18 | 212 | 6.4 | 9.7 | 0.00 | 0.00 | 0.00 | 40 | 1017.4 |
| 20260503221014 | 18 | 209 | 1.6 | 6.4 | 0.00 | 0.00 | 0.00 | 40 | 1017.4 |
| 20260503220509 | 18 | 205 | 0.0 | 9.7 | 0.00 | 0.00 | 0.00 | 39 | 1017.4 |
| 20260503220025 | 18 | 202 | 6.4 | 9.7 | 0.00 | 0.00 | 0.00 | 40 | 1017.4 |
| 20260503215504 | 18 | 173 | 3.2 | 9.7 | 0.00 | 0.00 | 0.00 | 39 | 1017.4 |
| 20260503215008 | 18 | 160 | 1.6 | 9.7 | 0.00 | 0.00 | 0.00 | 39 | 1017.5 |
| 20260503214523 | 18 | 237 | 6.4 | 9.7 | 0.00 | 0.00 | 0.00 | 39 | 1017.5 |
| 20260503214010 | 18 | 240 | 0.0 | 6.4 | 0.00 | 0.00 | 0.00 | 40 | 1017.6 |
| 20260503213509 | 18 | 254 | 3.2 | 6.4 | 0.00 | 0.00 | 0.00 | 39 | 1017.7 |
| 20260503213021 | 18 | 217 | 1.6 | 12.9 | 0.00 | 0.00 | 0.00 | 39 | 1017.8 |
| 20260503212509 | 18 | 180 | 8.0 | 12.9 | 0.00 | 0.00 | 0.00 | 39 | 1017.8 |
| 20260503212009 | 18 | 238 | 3.2 | 11.3 | 0.00 | 0.00 | 0.00 | 40 | 1017.9 |
| 20260503211523 | 18 | 1 | 0.0 | 11.3 | 0.00 | 0.00 | 0.00 | 41 | 1018.1 |
| 20260503211006 | 18 | 239 | 1.6 | 14.5 | 0.00 | 0.00 | 0.00 | 42 | 1018.0 |
| 20260503210514 | 18 | 217 | 8.0 | 14.5 | 0.00 | 0.00 | 0.00 | 40 | 1018.1 |
| 20260503210027 | 18 | 216 | 4.8 | 11.3 | 0.00 | 0.00 | 0.00 | 40 | 1018.1 |
| 20260503205508 | 18 | 201 | 3.2 | 11.3 | 0.00 | 0.00 | 0.00 | 40 | 1018.2 |
| 20260503205008 | 18 | 234 | 1.6 | 9.7 | 0.00 | 0.00 | 0.00 | 42 | 1018.3 |
| 20260503204515 | 18 | 39 | 0.0 | 9.7 | 0.00 | 0.00 | 0.00 | 41 | 1018.4 |
| 20260503204009 | 18 | 274 | 1.6 | 11.3 | 0.00 | 0.00 | 0.00 | 40 | 1018.5 |
| 20260503203509 | 18 | 236 | 8.0 | 11.3 | 0.00 | 0.00 | 0.00 | 40 | 1018.5 |
| 20260503203029 | 18 | 188 | 3.2 | 6.4 | 0.00 | 0.00 | 0.00 | 41 | 1018.6 |
| 20260503202508 | 18 | 1 | 1.6 | 8.0 | 0.00 | 0.00 | 0.00 | 40 | 1018.7 |
| 20260503202003 | 18 | 146 | 1.6 | 11.3 | 0.00 | 0.00 | 0.00 | 41 | 1018.8 |
| 20260503201503 | 18 | 217 | 0.0 | 11.3 | 0.00 | 0.00 | 0.00 | 41 | 1018.8 |
| 20260503201002 | 18 | 235 | 3.2 | 11.3 | 0.00 | 0.00 | 0.00 | 40 | 1018.8 |
| 20260503200503 | 18 | 191 | 1.6 | 6.4 | 0.00 | 0.00 | 0.00 | 41 | 1018.9 |
| 20260503200012 | 18 | 7 | 0.0 | 6.4 | 0.00 | 0.00 | 0.00 | 40 | 1018.9 |
| 20260503195504 | 18 | 198 | 3.2 | 4.8 | 0.00 | 0.00 | 0.00 | 45 | 1019.0 |
| 20260503195005 | 18 | 167 | 1.6 | 8.0 | 0.00 | 0.00 | 0.00 | 40 | 1019.1 |
| 20260503194514 | 17 | 195 | 1.6 | 8.0 | 0.00 | 0.00 | 0.00 | 44 | 1019.2 |
| 20260503194003 | 17 | 243 | 1.6 | 14.5 | 0.00 | 0.00 | 0.00 | 41 | 1019.2 |
| 20260503193506 | 17 | 235 | 6.4 | 14.5 | 0.00 | 0.00 | 0.00 | 39 | 1019.4 |
| 20260503193019 | 17 | 129 | 4.8 | 11.3 | 0.00 | 0.00 | 0.00 | 40 | 1019.4 |
| 20260503192507 | 17 | 175 | 1.6 | 8.0 | 0.00 | 0.00 | 0.00 | 42 | 1019.5 |
| 20260503192006 | 17 | 338 | 1.6 | 9.7 | 0.00 | 0.00 | 0.00 | 39 | 1019.6 |
| 20260503191504 | 17 | 240 | 4.8 | 9.7 | 0.00 | 0.00 | 0.00 | 41 | 1019.7 |
| 20260503191003 | 17 | 248 | 3.2 | 9.7 | 0.00 | 0.00 | 0.00 | 42 | 1019.7 |
| 20260503190502 | 17 | 203 | 6.4 | 9.7 | 0.00 | 0.00 | 0.00 | 41 | 1019.7 |
| 20260503190008 | 17 | 192 | 6.4 | 9.7 | 0.00 | 0.00 | 0.00 | 43 | 1019.7 |
| 20260503185502 | 17 | 16 | 1.6 | 8.0 | 0.00 | 0.00 | 0.00 | 41 | 1019.8 |
| 20260503185003 | 17 | 241 | 4.8 | 8.0 | 0.00 | 0.00 | 0.00 | 40 | 1019.9 |
| 20260503184512 | 17 | 210 | 3.2 | 8.0 | 0.00 | 0.00 | 0.00 | 44 | 1019.9 |
| 20260503184005 | 17 | 101 | 1.6 | 4.8 | 0.00 | 0.00 | 0.00 | 39 | 1020.1 |
| 20260503183507 | 17 | 47 | 1.6 | 4.8 | 0.00 | 0.00 | 0.00 | 39 | 1020.2 |
| 20260503183018 | 17 | 55 | 0.0 | 4.8 | 0.00 | 0.00 | 0.00 | 41 | 1020.2 |
| 20260503182508 | 17 | 302 | 1.6 | 4.8 | 0.00 | 0.00 | 0.00 | 44 | 1020.2 |
| 20260503182009 | 16 | 1 | 1.6 | 3.2 | 0.00 | 0.00 | 0.00 | 40 | 1020.3 |
| 20260503181527 | 16 | 39 | 1.6 | 6.4 | 0.00 | 0.00 | 0.00 | 40 | 1020.4 |
| 20260503181010 | 16 | 154 | 3.2 | 9.7 | 0.00 | 0.00 | 0.00 | 44 | 1020.4 |
| 20260503180505 | 16 | 193 | 3.2 | 11.3 | 0.00 | 0.00 | 0.00 | 42 | 1020.5 |
| 20260503180009 | 16 | 243 | 4.8 | 11.3 | 0.00 | 0.00 | 0.00 | 43 | 1020.5 |
| 20260503175504 | 16 | 37 | 1.6 | 8.0 | 0.00 | 0.00 | 0.00 | 46 | 1020.5 |
| 20260503175003 | 16 | 187 | 0.0 | 4.8 | 0.00 | 0.00 | 0.00 | 44 | 1020.6 |
| 20260503174514 | 16 | 37 | 0.0 | 8.0 | 0.00 | 0.00 | 0.00 | 44 | 1020.6 |
| 20260503174004 | 15 | 150 | 3.2 | 8.0 | 0.00 | 0.00 | 0.00 | 46 | 1020.7 |
| 20260503173503 | 16 | 179 | 1.6 | 6.4 | 0.00 | 0.00 | 0.00 | 44 | 1020.7 |
| 20260503173025 | 16 | 204 | 1.6 | 6.4 | 0.00 | 0.00 | 0.00 | 43 | 1020.8 |
| 20260503172509 | 16 | 266 | 1.6 | 6.4 | 0.00 | 0.00 | 0.00 | 44 | 1020.8 |
| 20260503172010 | 16 | 84 | 1.6 | 3.2 | 0.00 | 0.00 | 0.00 | 43 | 1020.9 |
| 20260503171525 | 15 | 153 | 1.6 | 8.0 | 0.00 | 0.00 | 0.00 | 44 | 1021.0 |
| 20260503171006 | 15 | 245 | 4.8 | 8.0 | 0.00 | 0.00 | 0.00 | 45 | 1021.0 |
| 20260503170509 | 15 | 195 | 3.2 | 8.0 | 0.00 | 0.00 | 0.00 | 46 | 1021.0 |
| 20260503151007 | 13 | 283 | 0.0 | 4.8 | 0.00 | 0.00 | 0.00 | 49 | 1021.8 |
| 20260503150508 | 14 | 5 | 1.6 | 4.8 | 0.00 | 0.00 | 0.00 | 53 | 1021.9 |
| 20260503131005 | 10 | 1 | 1.6 | 3.2 | 0.00 | 0.00 | 0.00 | 74 | 1021.7 |
| 20260503130505 | 10 | 335 | 0.0 | 3.2 | 0.00 | 0.00 | 0.00 | 76 | 1021.7 |
| 20260503110513 | 5 | 13 | 0.0 | 0.0 | 0.00 | 0.00 | 0.00 | 91 | 1020.9 |
| 20260503090503 | 5 | 13 | 0.0 | 0.0 | 0.00 | 0.00 | 0.00 | 88 | 1019.5 |
| 20260503081504 | 6 | 1 | 0.0 | 0.0 | 0.00 | 0.00 | 0.00 | 87 | 1019.3 |
| 20260503081003 | 6 | 1 | 0.0 | 0.0 | 0.00 | 0.00 | 0.00 | 87 | 1019.3 |
| 20260503080503 | 6 | 1 | 0.0 | 0.0 | 0.00 | 0.00 | 0.00 | 87 | 1019.3 |
| 20260503072510 | 6 | 1 | 0.0 | 0.0 | 0.00 | 0.00 | 0.00 | 85 | 1019.2 |
| 20260503072008 | 6 | 1 | 0.0 | 0.0 | 0.00 | 0.00 | 0.00 | 85 | 1019.1 |
| 20260503071518 | 6 | 1 | 0.0 | 0.0 | 0.00 | 0.00 | 0.00 | 85 | 1019.0 |
| 20260503071008 | 6 | 1 | 0.0 | 0.0 | 0.00 | 0.00 | 0.00 | 85 | 1018.9 |
| 20260503070507 | 6 | 1 | 0.0 | 0.0 | 0.00 | 0.00 | 0.00 | 83 | 1018.8 |
| 20260503055003 | 8 | 1 | 0.0 | 0.0 | 0.00 | 0.00 | 0.00 | 76 | 1018.8 |
| 20260503054510 | 8 | 1 | 0.0 | 0.0 | 0.00 | 0.00 | 0.00 | 76 | 1018.8 |
| 20260503054003 | 8 | 1 | 0.0 | 0.0 | 0.00 | 0.00 | 0.00 | 76 | 1018.8 |
| 20260503053504 | 8 | 1 | 0.0 | 3.2 | 0.00 | 0.00 | 0.00 | 75 | 1018.8 |
| 20260503053011 | 8 | 1 | 0.0 | 3.2 | 0.00 | 0.00 | 0.00 | 75 | 1018.8 |
| 20260503052503 | 8 | 1 | 0.0 | 1.6 | 0.00 | 0.00 | 0.00 | 74 | 1018.8 |
| 20260503052005 | 8 | 1 | 0.0 | 3.2 | 0.00 | 0.00 | 0.00 | 74 | 1018.8 |
| 20260503051516 | 8 | 1 | 0.0 | 3.2 | 0.00 | 0.00 | 0.00 | 74 | 1018.7 |
| 20260503051006 | 9 | 1 | 0.0 | 0.0 | 0.00 | 0.00 | 0.00 | 74 | 1018.7 |
| 20260503050504 | 9 | 1 | 0.0 | 3.2 | 0.00 | 0.00 | 0.00 | 73 | 1018.7 |
| 20260503050017 | 9 | 1 | 0.0 | 3.2 | 0.00 | 0.00 | 0.00 | 72 | 1018.6 |
| 20260503045506 | 9 | 1 | 0.0 | 3.2 | 0.00 | 0.00 | 0.00 | 72 | 1018.6 |
| 20260503045007 | 9 | 1 | 0.0 | 3.2 | 0.00 | 0.00 | 0.00 | 72 | 1018.6 |
| 20260503044527 | 9 | 1 | 0.0 | 3.2 | 0.00 | 0.00 | 0.00 | 72 | 1018.5 |
| 20260503044011 | 9 | 1 | 0.0 | 0.0 | 0.00 | 0.00 | 0.00 | 72 | 1018.5 |
| 20260503043503 | 9 | 1 | 0.0 | 0.0 | 0.00 | 0.00 | 0.00 | 71 | 1018.4 |
| 20260503043008 | 10 | 1 | 0.0 | 3.2 | 0.00 | 0.00 | 0.00 | 70 | 1018.4 |
| 20260503042504 | 10 | 1 | 0.0 | 3.2 | 0.00 | 0.00 | 0.00 | 69 | 1018.3 |